Вернуться в каталог

IRIDIUM 33 DEB

АктивенPO
NORAD 35051·DEBRIS·🇺🇸 United States

Запущен Sep 14, 1997 с Baikonur Cosmodrome

Loading…

Ближайшие Пролёты (ближайшие 24 часа)

TLE

СвежийSource: Space-Track

Эпоха: Sep 14, 2026, 10:18 UTC

1 35051U 97051NX  26257.42944308  .00001344  00000-0  35149-3 0  9999
2 35051  86.3188 248.5522 0005694 242.3028 117.7598 14.48706488909863

Отслеживайте IRIDIUM 33 DEB в реальном времени с AllMySat

Download on the App Store